GFSSE_500_spd_057.txt.gz
Wind_Speed
12 9 11 12 14 14 13 12 12 12 14 15 17 17 18 18 17 16 15 14 13 13 14 13 13 13 12 11 11 10 10 9 8 10 13 13 12 11 10 10 9 10 12
10 10 12 13 14 13 12 12 11 13 14 15 16 16 17 17 15 15 14 13 12 11 11 10 10 9 8 8 9 10 11 10 9 7 8 10 9 10 10 10 10 9 9
11 11 11 13 14 14 13 11 11 13 14 15 16 16 16 15 12 11 11 11 10 9 7 7 6 5 4 5 6 8 10 10 11 9 10 10 9 8 8 9 8 8 7
9 10 11 13 13 14 12 10 12 12 13 15 15 15 14 13 11 9 10 10 9 8 7 6 6 5 5 4 4 6 7 10 8 9 11 12 10 7 6 7 6 6 7
6 10 12 14 13 13 12 11 13 12 14 16 15 14 12 12 11 9 9 10 9 9 10 11 10 8 6 2 1 3 7 9 12 12 10 8 8 6 4 5 6 7 8
6 9 13 15 13 13 11 12 12 13 14 15 15 14 12 11 10 10 10 10 11 12 12 14 13 14 10 5 5 5 7 9 11 13 11 9 8 6 6 7 7 7 7
6 8 13 14 13 12 11 12 13 13 14 14 15 14 13 11 11 13 13 13 13 14 14 15 16 20 20 16 12 12 10 12 14 13 10 9 8 7 5 6 6 6 6
6 10 13 13 13 12 12 13 13 13 14 14 15 14 13 13 16 16 15 14 16 17 18 19 20 22 23 21 17 14 12 12 14 10 10 9 9 8 7 7 6 6 7
6 11 12 14 13 12 13 12 12 13 13 14 15 15 17 17 16 15 16 17 18 18 19 20 21 21 22 24 22 20 16 12 13 14 12 11 9 9 8 7 7 6 6
8 11 12 13 13 12 13 13 13 14 14 16 16 17 16 15 15 15 15 16 15 15 18 18 20 19 19 22 20 17 14 13 13 10 11 10 7 5 3 2 3 3 3
9 10 12 14 13 13 13 14 17 17 17 18 17 15 13 14 13 15 15 16 15 15 14 18 18 17 15 16 16 16 16 12 9 7 5 6 5 3 1 2 2 2 0
11 11 12 13 14 14 15 17 19 20 21 17 14 13 12 13 12 14 14 15 12 11 11 17 16 15 13 12 13 11 12 13 8 8 7 8 6 7 6 3 3 2 0
12 12 13 14 15 15 16 19 20 21 21 13 12 12 11 13 13 13 11 11 7 10 10 19 18 14 12 12 12 8 8 12 9 11 9 10 7 5 5 5 5 5 4
11 13 14 15 15 15 16 18 16 20 18 15 12 10 10 11 11 11 10 10 10 22 16 16 16 15 12 11 10 9 7 8 9 10 10 9 8 6 6 6 6 6 5
13 13 15 16 16 16 16 16 15 16 15 12 11 10 7 15 13 10 13 11 2 18 18 16 18 13 12 12 11 10 8 10 8 8 8 7 8 7 8 7 7 9 9
14 13 14 15 16 17 18 16 13 10 11 11 10 8 8 16 9 9 13 14 16 18 17 16 14 13 13 14 11 9 9 9 8 8 6 8 8 8 10 9 11 11 11
15 14 15 15 16 18 16 15 12 10 8 7 8 8 9 9 9 11 10 12 13 15 15 14 13 14 17 15 13 9 10 8 10 8 8 9 10 10 11 10 12 13 13
16 16 16 16 16 16 15 14 12 10 8 6 6 7 8 8 11 10 10 11 14 17 16 11 13 16 17 20 15 13 14 12 9 9 10 10 12 11 11 12 11 10 11
19 17 17 17 16 16 15 13 12 10 8 5 5 6 8 7 10 9 11 13 13 15 12 13 13 14 17 21 15 13 12 16 13 10 11 11 14 13 12 11 10 10 10
20 19 19 17 17 16 14 13 12 10 7 5 5 6 7 7 6 7 10 11 10 14 14 13 11 12 15 18 17 14 14 15 15 12 11 12 12 13 12 11 8 9 8
22 20 19 18 17 16 16 14 12 10 8 7 6 7 4 3 3 6 8 10 10 12 11 12 10 13 14 12 15 15 18 16 14 13 14 13 12 11 11 11 9 7 7
23 21 20 19 19 18 17 14 11 11 10 9 7 6 5 3 1 4 4 5 5 8 10 10 11 13 13 13 13 15 16 15 14 14 14 13 13 11 12 11 12 9 8
25 22 21 20 21 20 19 15 13 12 12 11 9 7 6 3 0 2 2 3 3 6 7 7 8 11 13 13 12 13 12 13 14 12 12 12 12 12 13 13 14 13 13
25 24 22 22 22 22 19 17 16 16 13 10 10 10 6 4 2 0 1 2 3 4 3 5 5 5 7 10 12 9 10 11 14 12 14 15 14 12 13 13 13 14 13
26 24 22 22 23 22 20 19 19 16 13 12 12 8 8 7 4 1 1 2 1 2 4 4 4 3 4 7 10 11 11 11 11 13 15 15 13 14 16 14 14 13 16
25 23 22 20 22 22 22 21 18 15 14 13 12 10 9 7 4 2 2 2 2 1 4 4 5 6 5 5 8 9 10 9 10 13 14 15 16 14 11 13 15 14 14

GFSSE_500_spd_060.txt.gz
Wind_Speed
9 10 10 11 12 12 11 10 10 11 12 15 16 16 17 15 14 13 13 13 12 12 12 12 11 12 11 11 10 9 9 8 8 6 7 7 7 8 9 11 13 12 12
9 9 9 11 12 12 11 11 11 13 14 15 15 15 15 14 14 13 13 12 10 10 9 9 8 8 9 9 9 10 9 9 10 10 10 9 10 10 10 11 10 9 9
9 8 9 10 12 13 12 12 12 13 14 15 15 15 14 13 12 11 10 11 10 9 9 7 6 4 4 6 7 9 10 10 10 9 12 11 11 10 10 9 9 8 9
8 8 9 11 13 14 13 13 12 13 13 14 14 13 13 12 11 10 10 9 9 9 8 6 5 2 2 5 7 8 8 8 10 11 10 10 9 9 7 7 7 8 8
7 8 10 12 14 14 14 14 13 13 14 15 14 14 13 12 11 10 11 10 10 11 11 10 8 5 2 3 7 8 9 9 12 13 12 9 7 7 6 6 7 7 7
6 8 12 13 14 14 14 13 14 14 15 15 14 14 12 12 10 10 11 12 12 11 11 13 13 11 4 7 10 10 12 11 13 13 12 11 7 7 7 6 6 7 7
8 9 12 14 14 14 14 14 14 15 15 14 14 12 12 10 11 13 14 15 14 14 14 17 21 20 18 14 14 11 11 12 13 13 11 10 9 7 7 6 7 8 8
9 10 12 13 14 14 14 14 15 17 15 14 13 12 13 13 13 14 16 16 16 17 18 21 23 23 24 20 14 13 15 11 12 9 8 9 8 7 7 8 8 8 7
10 12 12 14 14 13 14 15 16 17 15 15 15 15 15 15 14 14 16 16 18 19 19 20 22 26 26 24 21 16 12 13 13 10 9 8 7 8 7 7 6 6 5
10 11 12 14 14 13 14 14 17 17 16 17 18 16 15 15 15 15 15 16 15 16 16 17 19 21 23 20 18 15 13 13 12 10 6 4 4 2 2 2 2 2 1
9 11 12 13 13 15 16 17 18 19 19 19 17 16 15 15 17 16 14 13 12 11 11 15 16 17 17 19 16 14 11 9 7 7 4 3 3 2 1 1 1 1 1
11 10 11 12 15 16 17 18 20 20 19 17 16 14 13 15 16 15 13 12 8 12 9 14 13 13 13 13 13 11 9 7 7 7 6 4 6 7 5 5 5 3 2
12 11 12 12 15 17 19 19 20 20 19 17 16 13 12 13 13 16 14 19 9 8 11 13 14 11 14 11 11 9 8 7 7 7 11 6 7 6 6 7 7 6 6
11 11 13 14 16 17 20 18 18 17 18 15 14 12 11 11 12 12 12 13 14 12 12 11 11 13 13 12 9 9 8 6 5 5 8 9 10 10 10 10 11 8 7
12 12 13 15 16 18 19 17 16 16 16 14 13 10 9 9 13 13 14 18 13 15 14 12 13 13 13 8 5 9 6 4 5 5 9 9 10 11 12 11 13 12 10
12 13 13 15 18 19 20 19 15 12 13 13 12 8 13 10 13 12 13 16 15 15 14 13 14 18 15 10 8 10 7 6 5 7 9 10 10 10 13 13 14 13 12
15 15 15 15 16 17 17 16 15 14 11 11 11 10 10 13 13 12 11 16 17 16 13 13 19 21 16 17 15 14 15 11 11 10 11 11 11 11 12 13 12 13 13
16 16 15 16 17 17 17 14 14 13 12 9 11 11 11 12 12 14 16 14 15 12 15 15 19 19 18 21 19 15 15 14 14 12 13 11 12 13 10 12 13 11 12
19 19 17 16 19 18 15 14 12 11 11 10 11 10 10 11 13 14 15 14 16 15 15 15 17 16 18 20 18 16 15 16 12 12 13 12 12 13 11 12 11 11 11
21 19 21 20 19 18 16 14 14 11 9 9 12 11 9 11 11 11 12 12 14 12 12 14 15 16 18 21 18 17 15 15 15 14 12 12 12 12 11 11 10 11 12
23 20 21 21 19 17 16 16 14 11 9 9 10 10 8 8 9 9 10 12 12 12 13 15 16 18 17 19 16 17 17 14 15 13 13 12 11 10 11 11 11 10 11
24 24 24 22 20 19 17 16 13 11 9 9 8 7 7 5 6 7 7 9 9 9 11 13 15 17 17 15 15 17 18 15 14 12 13 12 13 11 11 12 11 10 11
26 24 23 22 22 20 17 14 12 11 10 9 8 6 4 3 3 4 4 5 5 7 8 10 10 13 14 14 15 16 15 14 13 11 13 13 13 10 11 12 11 11 11
25 26 24 22 21 20 18 16 16 15 12 10 9 7 5 3 2 1 0 1 2 4 5 9 8 11 11 13 13 15 13 12 13 12 12 15 12 12 12 11 11 13 12
27 25 24 21 19 19 18 17 17 15 12 12 11 8 7 5 3 2 2 2 0 2 4 5 9 9 8 8 8 10 9 10 13 14 16 19 15 13 12 13 15 15 16
25 24 22 21 19 18 19 19 17 15 14 13 11 9 8 5 4 2 0 3 4 1 2 2 4 7 8 5 7 7 7 8 10 11 14 16 15 16 17 18 19 17 16

GFSSE_500_spd_063.txt.gz
Wind_Speed
9 10 8 6 6 9 9 9 10 13 14 15 16 15 14 13 13 13 13 12 12 11 10 10 11 11 10 9 7 6 7 8 8 9 11 11 11 12 12 12 12 11 9
9 9 7 7 9 10 10 10 13 14 15 15 14 13 14 13 13 13 11 10 10 9 8 8 8 8 9 8 8 8 8 8 8 10 12 11 11 12 11 11 10 9 8
8 9 8 8 10 11 10 11 13 12 12 13 12 12 12 12 11 11 11 11 10 8 6 6 4 3 4 6 7 9 8 10 11 11 10 11 11 11 10 9 9 9 8
6 9 9 9 12 11 11 12 12 11 11 11 11 10 11 10 11 11 11 11 10 9 7 5 2 1 4 5 8 9 9 9 13 14 11 11 8 8 9 8 7 8 8
5 9 11 11 12 12 13 12 12 11 11 10 11 11 11 10 10 10 11 10 10 10 10 7 5 2 7 8 9 10 8 10 13 14 13 10 8 6 8 8 7 7 7
5 9 12 13 13 14 14 13 12 12 11 12 12 11 10 9 10 11 11 11 10 12 12 10 7 4 9 11 11 12 13 13 13 13 11 9 7 7 7 7 7 7 7
7 10 12 14 14 15 14 13 13 13 12 12 11 11 11 11 12 12 14 15 16 16 16 19 19 17 17 13 11 13 12 13 13 12 11 9 8 7 6 6 7 8 9
12 12 13 14 15 15 14 14 14 12 12 12 12 13 14 14 13 16 18 19 18 20 21 20 21 20 18 14 13 13 14 11 11 11 10 7 7 7 7 7 8 8 9
13 14 15 15 16 15 14 15 14 13 12 13 16 16 15 15 16 17 16 16 17 19 19 20 21 19 19 17 15 13 12 11 11 12 9 8 7 6 6 5 5 5 5
12 13 15 16 16 16 15 13 13 14 14 17 17 16 16 16 16 16 15 14 15 15 15 16 16 16 16 14 14 13 11 11 10 9 7 4 3 2 2 2 2 3 2
10 13 14 16 16 15 14 14 14 15 16 18 17 16 17 15 15 14 13 13 12 11 12 12 14 14 12 13 11 9 8 7 5 4 4 4 3 0 1 3 3 2 2
11 12 13 15 16 16 15 15 16 17 17 18 18 16 15 14 14 14 15 9 11 11 11 9 11 12 10 9 7 8 7 6 5 5 5 6 7 7 6 6 5 4 4
12 13 13 14 16 16 17 18 18 17 17 17 17 16 13 13 16 13 13 17 13 8 9 11 10 9 9 8 6 7 8 9 8 6 5 7 6 9 8 6 6 6 7
14 13 15 15 16 16 18 19 18 18 17 17 16 13 12 11 13 16 10 15 13 12 10 11 11 7 7 9 7 5 6 8 8 7 8 9 10 10 11 10 10 10 9
14 14 15 18 18 18 21 19 16 17 15 15 14 13 11 12 13 13 14 15 12 14 14 13 11 7 5 6 8 8 7 6 7 7 8 11 12 11 13 12 13 11 11
13 15 16 17 20 20 20 17 16 14 13 13 13 13 12 13 11 11 13 14 14 15 15 16 16 11 7 10 10 10 8 9 7 8 8 9 12 12 13 14 13 12 14
15 15 17 17 21 20 21 19 16 13 14 12 14 15 14 12 11 11 8 14 16 17 19 20 19 15 15 18 16 10 9 7 8 9 9 10 12 13 14 14 14 14 14
16 16 18 18 20 19 17 16 18 15 14 14 15 15 13 10 11 13 13 15 16 17 19 19 20 17 17 16 15 12 11 10 9 10 9 9 12 13 14 13 13 14 14
19 18 20 20 21 21 18 16 15 13 12 15 15 13 12 9 11 14 14 15 16 17 18 19 18 16 15 14 15 14 12 11 11 10 11 12 11 13 11 12 14 14 13
21 22 22 23 22 21 18 16 16 13 10 13 13 13 11 8 11 12 12 14 18 18 18 19 17 16 17 16 18 17 14 12 11 12 10 10 11 12 13 13 14 13 12
23 22 21 22 22 18 18 17 16 13 12 13 12 11 10 8 9 10 11 12 16 16 18 18 19 17 16 16 15 16 17 18 15 13 10 9 9 11 14 15 13 14 14
24 24 22 24 22 22 19 18 14 12 12 14 12 8 9 8 7 8 11 10 11 14 15 15 17 17 15 15 13 16 15 16 16 13 11 12 14 14 14 15 14 13 11
26 25 24 23 23 21 19 18 13 12 11 13 12 9 6 6 5 6 8 8 8 11 11 12 13 14 14 13 13 16 16 15 14 14 14 14 11 10 10 12 11 10 9
29 29 28 27 24 22 20 19 18 15 11 10 9 8 6 5 4 4 6 6 6 8 8 9 11 10 10 9 11 16 15 15 14 16 16 15 12 12 13 13 12 10 10
32 30 28 28 26 23 23 20 18 15 12 11 8 7 5 4 4 3 4 4 3 5 5 6 8 10 9 9 10 12 12 11 11 15 15 17 18 17 16 15 14 14 13
32 30 29 28 25 25 24 20 18 15 14 11 8 7 6 4 3 2 2 2 1 1 3 3 4 9 10 10 10 10 9 9 9 12 14 16 16 15 14 13 12 13 13

GFSSE_500_spd_069.txt.gz
Wind_Speed
10 11 10 10 11 11 14 14 14 15 15 16 17 17 16 15 13 13 12 11 10 10 10 10 11 11 10 10 12 12 13 14 15 14 13 13 13 14 12 9 7 6 6
11 10 10 10 11 12 14 15 16 16 16 16 15 15 14 13 13 12 9 8 7 7 6 7 9 10 10 10 11 12 13 15 15 13 13 13 12 12 10 8 6 6 6
10 11 12 10 11 12 13 15 15 15 15 15 14 13 12 11 11 10 9 8 6 4 3 4 6 7 9 10 11 11 14 17 15 14 12 12 12 11 9 9 8 8 8
10 12 13 11 11 13 14 15 14 14 14 13 11 11 10 10 9 10 9 8 8 5 3 4 6 8 8 9 9 12 14 17 17 15 14 12 11 9 9 9 8 8 8
10 12 14 12 12 13 14 14 14 13 12 12 11 11 10 11 13 11 11 11 11 8 5 3 7 9 9 9 9 2 12 16 15 14 11 11 9 9 8 8 7 6 7
11 12 13 13 12 13 14 14 14 15 14 12 12 13 14 15 15 15 15 17 15 14 9 7 12 12 11 11 12 17 15 15 14 12 11 10 9 8 7 8 8 8 8
13 13 13 14 13 14 16 16 16 15 14 13 14 15 16 18 19 19 20 19 19 18 18 17 17 14 14 14 15 14 16 16 14 12 11 10 8 7 8 10 10 9 9
15 15 14 16 15 16 15 16 16 14 14 15 16 17 18 19 18 18 18 20 20 20 20 19 17 16 14 15 15 14 13 14 13 11 10 9 8 8 8 9 8 8 8
14 16 16 17 15 16 15 16 15 15 16 16 16 16 15 15 15 14 15 16 17 19 18 18 16 15 14 14 14 13 12 10 10 9 9 9 9 8 7 6 4 4 3
14 15 16 17 15 16 15 14 15 16 17 16 16 15 13 11 12 11 12 12 14 16 15 15 15 13 12 12 13 12 12 12 10 8 6 6 6 5 4 2 1 2 2
13 14 15 15 15 16 15 15 16 16 17 17 16 13 11 10 8 7 9 12 12 13 12 12 10 13 12 11 11 11 10 9 7 7 6 4 4 4 4 3 2 3 3
14 15 15 15 15 15 16 16 17 17 17 17 14 11 11 12 14 11 15 14 12 10 9 9 8 9 10 9 8 8 8 6 6 7 6 6 5 6 6 6 6 5 6
17 16 16 15 15 16 16 17 17 16 16 15 13 11 12 13 14 11 12 10 9 10 7 6 8 8 7 7 9 9 8 8 8 7 5 6 5 4 5 7 8 8 7
19 17 17 16 15 16 17 17 16 15 14 13 13 11 12 14 13 10 11 11 11 10 8 6 4 6 5 5 9 10 8 9 9 10 8 8 9 9 9 11 9 8 9
20 19 18 18 18 17 18 18 17 16 14 14 16 13 11 14 14 12 11 12 10 10 8 8 6 4 5 6 9 10 10 11 9 9 9 11 11 12 13 11 11 11 11
20 20 19 19 19 19 19 19 19 17 14 14 15 12 11 11 12 12 10 11 11 11 9 9 8 8 9 8 9 10 10 11 11 10 9 11 12 12 15 15 14 12 11
23 23 21 20 21 20 19 18 19 16 15 15 14 12 12 13 12 12 11 13 11 15 14 13 13 14 13 11 12 11 10 12 11 12 12 12 11 11 13 13 14 14 15
23 24 22 22 21 21 19 19 17 16 16 18 14 12 13 13 13 13 13 14 13 17 17 14 14 13 14 14 14 13 13 13 12 11 11 11 10 11 12 13 14 13 14
26 25 25 25 23 20 17 16 15 16 17 18 14 12 13 15 15 15 15 17 17 18 20 18 17 15 16 15 17 15 15 15 15 12 11 10 10 11 11 12 14 14 14
26 27 27 28 26 21 16 14 14 15 16 16 13 12 12 15 17 16 17 18 19 20 20 19 19 17 17 15 17 15 14 15 14 13 11 11 10 11 14 16 17 15 15
28 27 27 27 26 23 18 18 17 17 16 16 13 11 11 14 16 16 15 18 19 21 20 19 18 18 15 14 17 15 14 13 12 13 13 14 14 14 16 15 13 14 14
28 29 27 28 26 25 23 22 18 17 17 17 14 12 11 13 15 13 13 13 16 17 17 16 17 17 14 13 12 12 11 12 13 15 15 15 15 15 15 13 13 14 15
30 29 29 28 28 26 24 21 18 16 17 17 15 13 11 11 12 12 12 11 12 13 13 13 14 15 15 13 11 9 9 9 9 10 12 14 13 13 12 13 13 14 13
32 32 32 32 30 28 24 22 21 22 23 22 17 14 12 11 11 10 10 11 9 9 10 11 12 13 13 13 12 10 10 10 9 10 11 10 10 10 10 10 10 9 9
36 34 34 35 33 29 24 24 23 21 19 18 16 13 12 11 10 9 8 9 8 8 9 10 11 10 12 14 13 12 11 11 10 10 11 12 13 12 13 12 11 10 10
38 39 37 36 35 31 28 27 24 21 20 19 17 14 12 11 11 9 8 8 8 8 8 10 10 9 12 13 13 13 13 13 13 13 13 13 13 12 12 13 13 12 12

GFSSE_500_spd_075.txt.gz
Wind_Speed
10 12 14 14 16 15 17 17 18 17 16 15 14 13 12 12 11 10 8 8 8 8 10 11 10 10 8 11 11 12 12 12 12 13 13 13 11 10 9 9 9 9 9
9 12 14 15 17 16 16 15 14 14 14 13 12 11 12 11 9 7 5 4 4 6 6 7 9 10 10 12 13 13 13 11 12 12 13 13 11 9 8 9 10 10 9
10 12 15 16 16 16 16 15 14 13 12 11 11 11 10 10 9 7 5 4 4 4 4 6 7 8 9 11 13 13 13 11 12 13 10 11 10 8 8 8 8 8 8
11 13 15 15 16 15 15 14 13 11 11 11 10 11 10 9 8 8 6 3 3 5 6 6 6 7 7 9 13 13 13 11 12 12 10 9 9 8 7 7 7 8 8
10 13 15 14 14 14 14 13 11 11 11 11 9 10 11 11 11 11 10 8 4 7 9 9 9 10 10 10 14 12 13 12 12 11 9 8 7 7 6 6 6 6 6
12 12 14 13 12 13 13 12 11 10 9 10 10 11 13 14 15 16 15 12 9 12 13 13 12 12 10 7 13 15 13 12 11 9 8 7 7 7 6 7 6 6 6
13 13 13 14 12 13 12 12 11 9 9 10 11 13 15 15 15 17 19 19 18 17 16 14 12 12 11 21 13 16 13 11 9 7 6 6 5 6 7 8 7 7 7
14 13 14 14 12 13 12 11 10 9 8 9 12 13 14 13 14 18 20 22 21 19 16 14 14 13 12 11 12 13 10 9 6 5 4 3 5 6 6 7 7 6 6
13 13 13 14 13 13 12 10 9 9 10 11 10 10 10 11 13 16 17 19 19 17 15 13 12 12 12 12 12 11 9 7 5 3 3 4 5 5 4 4 4 3 3
14 13 14 13 13 12 11 10 10 10 10 8 7 7 7 9 12 15 13 15 16 16 16 15 14 13 11 10 10 9 7 6 6 5 4 3 3 2 1 2 2 2 2
14 13 14 13 13 12 11 11 11 10 9 8 7 8 7 7 9 11 11 12 13 13 15 14 13 14 12 11 10 8 5 4 3 3 1 1 1 1 2 1 0 1 3
16 14 14 12 12 12 12 11 11 11 9 9 9 9 11 13 12 11 10 10 11 10 11 12 13 12 15 8 9 5 4 5 4 6 6 5 4 4 3 3 2 4 5
17 16 14 13 13 13 13 12 12 10 10 9 7 8 9 10 11 9 8 8 9 8 10 11 12 13 11 7 9 6 7 7 7 6 7 6 7 7 6 8 8 8 8
18 18 17 14 14 13 13 13 12 9 9 9 10 10 10 10 12 14 10 9 8 6 7 8 10 10 9 8 8 9 9 11 10 10 11 9 10 12 11 11 11 12 11
19 19 18 17 15 15 15 14 12 9 7 8 8 11 12 11 12 12 10 9 11 8 4 8 8 9 9 7 9 8 10 11 12 12 13 15 14 14 14 14 13 12 15
20 21 20 19 17 16 14 13 12 10 8 7 8 10 12 12 11 12 11 12 14 13 13 9 10 5 9 9 9 8 9 11 12 13 14 15 16 16 15 16 16 15 15
22 22 21 20 18 17 15 12 12 12 8 8 9 10 12 13 11 11 12 14 15 16 15 15 13 11 9 8 8 11 10 11 12 13 14 15 15 16 17 15 15 14 14
22 22 22 20 19 17 15 14 13 12 10 9 8 9 11 12 11 11 13 14 13 14 14 13 11 12 12 13 12 12 13 12 12 11 13 14 15 14 15 13 13 13 13
24 23 23 21 20 18 15 12 12 14 13 10 9 9 11 12 12 10 14 13 13 13 14 13 9 12 13 14 15 13 13 12 10 11 11 14 15 14 14 13 13 12 13
23 24 24 22 20 18 15 13 13 16 14 12 12 11 10 13 12 11 13 14 15 14 14 12 11 9 7 11 10 12 11 9 11 12 14 15 17 16 15 14 14 14 13
23 24 24 23 20 19 16 15 15 16 16 14 13 12 11 12 12 11 11 12 12 13 13 13 10 11 9 9 9 10 10 10 10 12 14 16 15 15 14 15 14 13 14
23 24 24 24 23 21 19 17 15 15 15 14 14 14 13 12 12 12 11 9 9 9 10 11 10 11 10 9 8 10 11 13 12 13 15 14 13 12 13 13 14 15 15
24 24 25 26 26 24 21 19 17 16 16 15 14 13 12 11 10 10 10 7 7 7 7 7 6 7 8 9 8 9 8 10 11 11 11 10 11 12 13 15 16 17 17
27 27 28 28 27 26 23 21 19 19 18 17 15 13 12 11 9 9 9 7 6 5 6 7 6 4 5 7 8 8 9 10 11 10 12 13 14 14 15 16 16 17 17
31 30 31 30 30 28 25 22 22 21 19 16 14 14 13 11 10 8 7 5 4 3 3 5 5 4 5 5 5 5 7 7 8 10 11 13 14 15 14 15 15 14 14
32 33 33 32 32 30 27 24 22 22 20 18 15 13 13 11 10 9 7 6 5 4 5 5 6 5 5 4 3 4 5 6 7 9 9 12 12 13 13 12 12 11 12